Location: Feydey
(46.3431°N, 7.0106°E)
Time: 23:40:08
(UTC+00:00)

SL-14 R/B - Pass Details

Date: 20 June 2021
Orbit: 517 x 554 km, 82.4° (Epoch: 23 July)

Event Time Altitude Azimuth Distance (km) Brightness Sun altitude
Exits shadow 20:41:04 11° 166° (SSE) 1,744 5.3 -10.0°
Maximum altitude 20:44:42 45° 94° (E) 757 3.7 -10.4°
Drops below altitude 10° 20:48:34 10° 21° (NNE) 1,833 6.4 -10.8°
Sets 20:50:47 0° 15° (NNE) 2,726 7.4 -11.1°
